User: anonymous   Login
Location: Oshawa
(43.9000°N, 78.8670°W)
Time: 18:09:33
(UTC-04:00)
Language:

Explorer 11/Cluster Stage 4 - Orbit

View from above orbital plane
View from above orbital plane
View from above satellite
View from above satellite

Ground track
Ground track

The orbit data is extracted from the following two-line orbital elements,

1 00107U 61013A   15186.51897744  .00002556  00000-0  33254-3 0  9993
2 00107 028.7880 307.7704 0554630 128.2554 317.3912 14.06976472710562
Epoch (UTC): 05 July 2015 12:27:19
Eccentricity: 0.0554630
inclination: 28.7880°
perigee height: 468 km
apogee height: 1272 km
right ascension of ascending node: 307.7704°
argument of perigee: 128.2554°
revolutions per day: 14.06976472
mean anomaly at epoch: 317.3912°
orbit number at epoch: 71056

The dashed part of the orbit path shows where the satellite is in the earth's shadow,  

DLR